Weather History for Belize / Phillip Goldston Intl. Airport, Belize

Change the Weather History Date:

Tuesday, November 27, 2012

  Actual Average Record
Temperature  
Mean Temperature 76 °F -  
Max Temperature 84 °F 82 °F - ()
Min Temperature 68 °F 69 °F - ()
Cooling Degree Days 11    
Growing Degree Days 26 (Base 50)    
Moisture  
Dew Point 72 °F    
Average Humidity 81    
Maximum Humidity 95    
Minimum Humidity 68    
Precipitation  
Precipitation 0.01 in 0.23 in - ()
Sea Level Pressure  
Sea Level Pressure 30.05 in    
Wind  
Wind Speed 4 mph ()    
Max Wind Speed 10 mph    
Max Gust Speed -    
Visibility 8.0 miles    
Events      
T = Trace of Precipitation, MM = Missing Value Source: Averaged Metar Reports

Daily Weather History Graph

Daily Weather History Graph

Search for Another Location

Airport:

Trip Planner

Search our weather history database for the weather conditions in past years. The results will help you decide how hot, cold, wet, or windy it might be!

Date:

Astronomy

Nov. 27, 2012 Rise Set
Actual Time 6:05 AM CST 5:16 PM CST
Civil Twilight 5:42 AM CST 5:39 PM CST
Nautical Twilight 5:15 AM CST 6:06 PM CST
Astronomical Twilight 4:48 AM CST 6:33 PM CST
Moon 4:45 PM CST (11/27) 5:13 AM CST (11/27)
Length of Visible Light 11h 57m
Length of Day
11h 11m
Waxing Gibbous, 99% of the Moon is Illuminated
Nov 27
Waxing Gibbous
Nov 28
Full
Dec 6
Last Quarter
Dec 13
New
Dec 19
First Quarter

Hourly Weather History & Observations

Time (CST) Temp. Heat Index Dew Point Humidity Pressure Visibility Wind Dir Wind Speed Gust Speed Precip Events Conditions
3:00 AM 73 °F - 71 °F 91% 30.03 in 12 mi Calm Calm - -   Mostly Cloudy
5:00 AM 69.8 °F - 68.0 °F 94% 30.04 in 6.2 mi Calm Calm - N/A   Partly Cloudy
6:00 AM 69 °F - 68 °F 95% 30.05 in 12 mi West 3.5 mph - -   Mostly Cloudy
6:00 AM 69.8 °F - 68.0 °F 94% 30.04 in 6.2 mi West 3.5 mph - N/A   Mostly Cloudy
7:00 AM 69.8 °F - 68.0 °F 94% 30.04 in 6.2 mi West 3.5 mph - N/A   Mostly Cloudy
8:00 AM 73.4 °F - 69.8 °F 88% 30.06 in 6.2 mi West 5.8 mph - N/A   Mostly Cloudy
9:00 AM 76 °F - 71 °F 80% 30.08 in 12 mi WNW 5.8 mph - -   Scattered Clouds
9:00 AM 77.0 °F - 71.6 °F 83% 30.07 in 6.2 mi WNW 5.8 mph - N/A   Scattered Clouds
10:00 AM 82.4 °F 87.2 °F 71.6 °F 70% 30.07 in 6.2 mi North 6.9 mph - N/A   Mostly Cloudy
11:00 AM 82.4 °F 88.2 °F 73.4 °F 74% 30.06 in 6.2 mi NNE 9.2 mph - N/A   Mostly Cloudy
12:00 PM 81 °F - 73 °F 70% 30.06 in 12 mi NNE 8.1 mph - -   Mostly Cloudy
12:00 PM 80.6 °F 85.4 °F 73.4 °F 79% 30.05 in 6.2 mi NNE 8.1 mph - N/A   Mostly Cloudy
1:00 PM 82.4 °F 89.5 °F 75.2 °F 79% 30.02 in 6.2 mi NE 8.1 mph - N/A   Mostly Cloudy
2:00 PM 82.4 °F 88.2 °F 73.4 °F 74% 30.01 in 6.2 mi NE 9.2 mph - N/A   Mostly Cloudy
3:00 PM 82 °F - 73 °F 68% 30.01 in 12 mi NE 9.2 mph - -   Mostly Cloudy
3:00 PM 82.4 °F 88.2 °F 73.4 °F 74% 30.00 in 6.2 mi NE 9.2 mph - N/A   Mostly Cloudy
4:00 PM 80.6 °F 84.6 °F 71.6 °F 74% 30.01 in 6.2 mi North 10.4 mph - N/A   Mostly Cloudy
5:00 PM 78.8 °F - 71.6 °F 78% 30.02 in 6.2 mi NNW 6.9 mph - N/A   Mostly Cloudy
6:00 PM 78 °F - 73 °F 79% 30.05 in 12 mi NNW 6.9 mph - -   Mostly Cloudy
6:00 PM 78.8 °F - 73.4 °F 83% 30.05 in 6.2 mi NNW 6.9 mph - N/A   Mostly Cloudy
7:00 PM 78.8 °F - 71.6 °F 78% 30.06 in 6.2 mi NNW 6.9 mph - N/A   Mostly Cloudy
8:00 PM 78.8 °F - 71.6 °F 78% 30.08 in 6.2 mi NNW 4.6 mph - N/A   Mostly Cloudy
9:00 PM 77 °F - 72 °F 81% 30.11 in 12 mi North 4.6 mph - -   Mostly Cloudy